User: anonymous   Login
Location: Caltech
(34.1382°N, 118.1253°W)
Time: 00:21:53
(UTC-07:00)
Language:

SEDSat Delta rocket - Orbit

View from above orbital plane
View from above orbital plane
View from above satellite
View from above satellite

Ground track
Ground track

The orbit data is extracted from the following two-line orbital elements,

1 25510U 98061C   16126.76694976  .00000512  00000-0  80969-4 0  9991
2 25510  31.4344 316.6830 0328524  68.5048  38.7520 14.36997765918668
Epoch (UTC): 05 May 2016 18:24:24
Eccentricity: 0.0328524
inclination: 31.4344°
perigee height: 533 km
apogee height: 1003 km
right ascension of ascending node: 316.6830°
argument of perigee: 68.5048°
revolutions per day: 14.36997765
mean anomaly at epoch: 38.7520°
orbit number at epoch: 91866

The dashed part of the orbit path shows where the satellite is in the earth's shadow,  

DLR